Regional Weather Roundup
Issued by NWS Lake Charles, LA

Home | Current Version | Previous Version | Text Only | Print | Product List | Glossary On
Versions: 1 2 3 4 5 6 7 8 9 10 11 12 13 14 15 16 17 18 19 20 21 22 23 24 25 26 27 28 29 30 31 32 33 34 35 36 37 38 39 40 41 42 43 44 45 46 47 48 49 50
000
ASUS44 KLCH 180410
RWRLCH
RWRLCH
REGIONAL WEATHER ROUNDUP
NATIONAL WEATHER SERVICE LAKE CHARLES LA
1000 PM CST WED DEC 17 2014

Note: "fair" indicates few or no clouds below 12,000 feet with no
significant weather and/or obstructions to visibility.


ACROSS SOUTHEAST TEXAS

CITY           SKY/WX    TMP DP  RH WIND       PRES   REMARKS
BEAUMONT       MOCLDY    58  50  75 E8        30.14S
BEAUMONT CITY    N/A     56  50  80 SE8       30.14S
ORANGE         CLOUDY    56  49  75 E6        30.17R
JASPER         CLOUDY    52  46  80 CALM      30.16F
$$

ACROSS CENTRAL LOUISIANA

CITY           SKY/WX    TMP DP  RH WIND       PRES   REMARKS
LEESVILLE      CLOUDY    50  43  76 E3        30.15S
FULLERTON      MOCLDY    51  42  71 CALM      30.14R
ALEXANDRIA INT CLOUDY    50  41  71 N3        30.17R
ESLER FIELD    CLOUDY    47  42  83 CALM      30.19R
DERIDDER         N/A     51  43  73 E3        30.16F
OAKDALE        MOCLDY    44  42  94 CALM      30.18R
OPELOUSAS        N/A     49  42  78 CALM      30.17R
$$

ACROSS SOUTHWEST AND SOUTH CENTRAL LOUISIANA

CITY           SKY/WX    TMP DP  RH WIND       PRES   REMARKS
SULPHUR        MOCLDY    53  47  77 CALM      30.17R
LAKE CHARLES   MOCLDY    51  45  79 E5        30.15R
CHENNAULT INT  MOCLDY    51  44  77 E3        30.16R
CAMERON PHI    PTCLDY    59  52  77 SE9       30.17S
DEQUINCY         N/A     49  45  83 CALM      30.16R
JENNINGS         N/A     51  43  74 CALM      30.16R
LAFAYETTE      MOCLDY    53  41  63 CALM      30.17R
NEW IBERIA     PTCLDY    51  43  74 SE6       30.18R
ABBEVILLE        N/A     49  46  88 E3        30.16R
PATTERSON      MOCLDY    50  45  81 E3        30.18F
SALT POINT       N/A     56  46  69 VRB3      30.16F
$$

SELECTED SITES ACROSS THE REGION

CITY           SKY/WX    TMP DP  RH WIND       PRES   REMARKS
HOUSTON BUSH   CLOUDY    58  53  84 E8        30.11F
HOUSTON HOBBY  CLOUDY    62  59  90 E6        30.11S
GALVESTON      CLOUDY    65  63  93 E12       30.10F
COLLEGE STAT   CLOUDY    53  50  89 CALM      30.11R
CONROE         CLOUDY    57  51  80 SE9       30.12S
HUNTSVILLE     CLOUDY    55  49  80 CALM      30.12R
LUFKIN         CLOUDY    54  45  71 NE3       30.14R
SHREVEPORT     LGT RAIN  47  40  76 E5        30.18R
MONROE         MOCLDY    46  39  76 NE3       30.22S
NATCHEZ MS     CLOUDY    48  39  71 E6        30.17F
BATON ROUGE    MOCLDY    50  41  71 E3        30.17F
N.O. INTL ARPT CLOUDY    52  42  69 CALM      30.20S
SLIDELL        CLOUDY    44  41  89 N3        30.20S
$$

MARINE REPORTS

STATION/POSITION TIME  TEMP    WIND        PRES    VSBY  WAVE
                       AIR SEA DIR/SP/G                  HT/PER
                 (UTC) (F)     (DEG/KT/KT) (MB)    (MI)  (FT/S)
BUOY 30 S HIGH I 0400   65 65  110/ 12/ 14 1019.0R         4/ 5
SEA RIM ST PARK  0400   61     110/  9/ 11 1021.0R
PORT ARTHUR      0400      62  100/  6/  8 1020.7R
SABINE PASS N    0400   61 62  120/ 10/ 12 1020.2S
TEXAS POINT      NOT AVBL
CALCASIEU PASS   0400   59 61  130/ 10/ 14   N/A
LK CHARLES BEACH 0400   53 63              1021.3S
MARSH ISLAND     NOT AVBL
FRESH WATER LOCK 0400   59 61  100/  9/ 12 1021.1R
AMERADA PASS     0400   53 52   90/  6/  9 1021.2F
$$



USA.gov is the U.S. government's official web portal to all federal, state and local government web resources and services.